Wind_Speed
10 11 10 10 11 11 12 12 12 12 12 13 14 14 14 13 14 15 15 14 14 14 14 14 14 15 15 15 15 14 14 14 13 14 14 14 14 13 13 13 14 13 13 13
11 11 11 12 12 12 12 13 12 12 13 14 14 14 13 14 14 14 15 15 15 15 15 14 15 15 15 15 15 15 14 14 14 15 15 15 15 14 14 14 14 14 14 14
12 11 12 12 12 12 12 12 12 13 13 14 14 13 13 14 14 15 15 15 15 16 16 15 16 16 16 16 16 15 15 15 15 15 15 15 15 15 15 14 14 14 14 14
13 12 12 12 12 12 12 12 13 13 13 13 13 15 13 14 15 16 16 16 16 16 16 16 16 17 16 16 16 16 16 16 16 16 16 16 15 15 15 15 15 15 15 15
13 13 13 13 12 13 12 13 13 13 13 14 13 15 15 15 15 16 16 16 16 16 17 16 16 16 16 16 16 17 17 17 17 17 17 17 16 16 16 16 16 16 16 16
13 14 14 14 14 14 14 14 13 14 15 15 13 15 16 17 17 17 17 16 16 17 17 17 17 16 17 17 17 17 17 18 18 18 18 18 17 17 17 17 17 17 17 17
14 15 15 15 15 14 14 14 14 14 15 16 15 17 17 19 20 19 18 18 18 18 18 18 18 18 18 18 18 18 18 18 18 18 18 18 18 18 18 18 18 18 18 19
15 16 16 16 16 15 15 15 16 16 16 15 16 17 18 19 21 20 20 20 19 20 20 19 19 19 19 19 19 19 19 19 19 19 20 20 20 20 20 20 20 20 20 20
16 17 18 18 17 17 16 17 16 16 17 17 17 18 20 21 22 21 21 21 21 21 21 21 20 20 20 20 20 20 20 20 21 21 21 22 22 22 22 22 21 21 21 21
17 18 18 18 19 19 18 18 18 18 18 19 19 20 21 22 23 22 22 22 22 21 22 22 22 22 22 22 22 22 22 22 22 23 23 23 23 23 22 22 22 22 22 22
18 18 18 19 20 20 20 19 19 20 20 21 21 21 21 22 23 23 22 23 23 22 23 23 24 24 24 24 23 23 23 23 24 24 24 24 24 23 23 23 23 23 23 24
19 19 19 19 20 20 21 21 21 22 22 24 25 23 23 24 25 25 24 24 23 24 25 25 25 25 25 25 25 25 24 24 25 25 25 25 24 24 24 24 24 24 24 25
20 20 20 20 20 21 22 21 22 22 23 23 25 26 25 26 27 27 27 26 25 25 26 26 26 26 26 26 25 25 25 26 26 26 26 26 25 25 25 25 25 25 25 25
22 22 22 22 22 22 23 23 23 24 25 25 26 26 26 27 28 28 28 28 27 26 27 27 27 27 27 27 27 26 27 27 26 26 27 27 27 27 26 26 26 26 26 26
22 23 23 23 22 22 24 24 24 25 25 27 28 29 28 28 30 31 30 29 29 28 28 28 28 28 28 29 28 28 28 27 27 27 28 27 28 28 28 28 27 27 27 27
22 23 23 23 23 23 23 24 25 25 26 27 28 30 29 29 30 30 30 30 31 31 30 29 29 29 29 29 29 29 29 29 30 30 30 29 29 29 29 29 29 29 29 29
23 23 23 23 23 24 24 24 25 25 26 27 29 29 28 29 30 30 29 29 30 31 31 31 30 30 29 30 30 31 31 31 31 31 31 30 30 30 30 30 30 30 30 30
22 23 23 23 23 25 25 25 26 26 27 28 29 29 29 30 30 31 30 30 30 31 31 31 31 31 31 30 30 31 31 32 32 31 31 31 31 31 31 30 30 31 31 31
22 23 23 24 25 26 25 24 25 26 27 27 28 28 29 30 30 30 30 31 31 31 31 32 32 31 31 31 31 31 32 32 32 32 32 31 31 31 31 30 31 31 31 31
22 22 23 24 25 26 26 25 26 27 28 27 27 27 28 28 29 29 30 31 31 31 31 32 32 32 32 32 32 32 32 32 32 32 32 32 31 31 31 31 31 31 31 31
22 23 23 24 25 26 26 25 25 26 27 27 27 27 27 28 28 29 29 30 30 30 31 31 32 32 32 32 32 32 32 32 33 33 32 32 32 32 32 32 31 31 31 32
24 24 24 25 26 27 26 26 26 27 27 28 28 28 29 29 29 29 30 31 30 30 30 30 31 31 31 31 32 32 32 32 32 32 32 32 31 31 31 32 32 32 32 32
24 24 25 26 26 27 27 27 28 29 29 29 30 30 31 31 31 31 31 31 31 31 30 30 30 30 30 31 31 31 31 31 31 30 31 31 31 31 32 32 32 32 32 33
25 25 27 28 27 28 28 29 29 30 30 30 31 31 31 31 32 31 31 31 31 30 29 29 29 29 30 30 31 30 30 30 30 31 31 31 31 31 31 31 31 32 32 32
26 28 28 29 29 29 30 30 31 31 32 32 31 30 30 30 30 30 30 30 30 30 29 29 29 29 29 30 30 30 31 31 31 31 31 31 31 31 31 31 32 32 32 32
27 28 29 30 30 31 30 31 31 32 32 32 32 30 30 29 29 30 30 30 30 30 29 29 30 30 29 29 30 30 30 30 30 31 31 31 31 31 31 31 31 32 32 32
Wind_Direction
252 253 255 258 260 259 259 260 264 268 269 270 271 269 269 269 267 269 273 274 275 276 276 274 274 274 275 278 280 281 282 284 286 287 288 289 290 289 290 289 288 288 289 293
258 258 257 257 256 256 258 262 263 265 267 266 268 270 271 271 269 272 275 276 275 276 277 274 273 273 275 276 279 279 281 283 285 286 288 290 290 289 289 288 287 286 289 292
259 261 259 259 257 257 259 260 259 262 262 263 267 270 272 273 272 274 275 275 275 276 278 276 275 274 273 275 278 279 280 282 284 286 288 289 287 287 286 285 286 287 287 289
258 259 259 258 257 257 256 258 261 263 263 266 270 273 271 273 274 275 274 274 273 274 276 276 276 275 274 275 276 277 278 281 283 286 287 288 287 286 285 284 285 286 286 288
261 262 263 261 259 259 257 257 260 262 264 268 269 271 271 273 274 276 277 277 274 274 275 275 275 275 274 273 274 276 277 279 281 283 285 286 286 284 283 283 283 285 285 285
260 262 263 263 261 261 259 259 260 263 266 269 270 269 270 272 275 275 278 278 276 274 273 273 274 274 274 274 275 277 278 278 279 282 283 284 285 284 283 282 281 282 283 284
263 264 265 264 264 263 259 260 263 265 266 270 276 272 273 275 277 275 276 275 275 276 274 274 274 275 274 275 275 277 278 278 279 280 282 282 283 283 282 282 282 280 281 283
262 264 265 266 263 265 261 258 261 262 262 269 268 272 275 276 276 275 278 277 274 275 277 277 276 276 276 276 276 276 277 278 278 279 280 282 283 282 281 280 282 281 281 283
259 262 265 266 263 260 258 257 260 263 264 267 269 269 271 274 276 276 275 275 274 275 276 277 277 276 275 276 276 276 277 277 277 278 280 282 282 281 280 279 281 280 279 281
261 262 265 266 263 261 260 259 257 259 263 264 267 266 267 270 275 279 276 275 274 274 275 275 275 273 274 275 275 275 277 276 277 277 279 281 280 279 279 278 281 279 279 280
261 261 264 267 265 265 264 261 258 259 260 263 266 266 268 272 274 276 277 277 275 274 273 273 273 273 273 274 275 275 276 276 276 277 278 278 279 279 279 279 280 280 279 280
261 262 261 266 268 265 263 260 259 259 260 261 266 267 268 270 272 273 273 273 273 273 272 272 273 273 274 274 275 275 275 275 276 276 277 277 278 278 278 280 280 279 280 280
260 261 263 264 264 265 263 259 259 262 263 264 266 267 267 269 271 272 272 273 273 273 273 273 273 273 273 274 275 276 274 274 276 277 277 277 278 278 279 279 280 279 279 280
262 262 264 267 267 266 267 265 264 262 262 265 267 267 265 269 272 272 273 272 273 273 273 273 273 273 273 273 274 275 275 275 275 275 276 276 278 278 278 279 279 280 280 280
263 263 265 266 267 266 265 264 263 264 266 268 269 268 269 269 272 273 274 273 273 272 272 272 272 272 272 272 272 273 274 274 275 275 275 276 277 277 277 278 279 280 280 280
265 265 266 266 266 264 264 265 266 267 268 270 271 271 272 270 271 272 274 274 273 274 273 272 272 272 273 272 272 271 272 273 274 275 276 277 277 277 276 277 277 278 279 280
267 267 266 268 268 267 266 268 272 273 273 273 273 274 274 273 272 273 274 275 273 272 272 271 271 271 272 273 273 272 271 271 273 274 275 276 276 276 276 276 277 277 278 278
267 268 268 269 270 271 273 271 274 277 276 277 276 275 273 273 274 273 273 274 275 273 271 271 270 271 270 270 271 272 272 272 273 273 273 274 275 274 275 276 277 277 278 278
268 270 271 271 271 273 274 274 274 276 276 277 277 278 276 275 273 273 275 275 275 275 274 272 271 270 270 270 270 271 271 273 273 273 273 274 273 273 273 275 276 277 277 278
270 270 271 274 276 276 277 277 278 278 278 279 280 280 279 278 276 275 274 276 276 275 275 273 271 271 271 271 271 271 272 272 273 273 274 274 274 275 275 274 275 275 275 277
269 271 272 275 277 277 279 280 280 277 277 278 279 279 279 278 278 277 276 276 277 276 275 274 272 271 272 272 271 272 273 273 273 273 274 274 274 275 276 274 273 273 274 277
270 270 272 274 275 276 279 280 278 277 278 278 278 278 277 277 277 277 276 277 277 277 275 275 273 273 273 273 272 272 273 273 273 273 274 273 274 276 277 276 274 273 275 276
269 272 274 275 276 277 277 279 280 278 277 277 277 277 276 276 277 277 276 277 277 278 277 276 275 274 273 273 273 272 272 272 273 273 274 275 276 277 277 277 276 275 275 275
269 271 272 273 275 275 276 278 279 278 278 278 278 277 276 276 276 276 275 276 276 276 276 277 276 274 274 273 273 272 271 271 273 273 275 276 278 277 277 277 277 277 276 276
271 271 272 274 276 276 276 277 278 279 279 278 279 279 277 278 277 277 277 276 275 274 275 276 276 276 274 273 272 272 271 271 272 274 277 278 279 279 279 278 277 277 277 277
271 272 273 275 277 278 278 278 279 280 280 279 278 278 277 277 277 277 278 278 276 275 276 276 276 276 276 275 272 272 272 273 274 275 277 279 280 279 278 278 278 278 277 278
Height
5830 5831 5832 5832 5832 5833 5833 5834 5834 5835 5835 5835 5835 5836 5837 5838 5838 5839 5839 5840 5840 5840 5841 5841 5841 5841 5842 5842 5842 5842 5842 5842 5842 5841 5841 5840 5840 5840 5839 5839 5838 5838 5837 5837
5828 5829 5829 5829 5829 5830 5830 5831 5831 5832 5832 5832 5832 5833 5834 5835 5835 5835 5836 5837 5837 5837 5838 5838 5838 5838 5838 5839 5839 5839 5839 5839 5838 5838 5838 5837 5837 5836 5836 5836 5835 5835 5834 5834
5825 5827 5826 5826 5826 5827 5827 5828 5829 5829 5829 5829 5830 5830 5831 5832 5832 5833 5833 5834 5834 5834 5834 5835 5835 5835 5835 5835 5835 5835 5835 5835 5835 5835 5834 5834 5833 5833 5833 5832 5832 5832 5831 5831
5821 5823 5823 5823 5823 5824 5824 5825 5825 5825 5826 5826 5827 5827 5829 5829 5829 5830 5830 5831 5831 5831 5831 5831 5831 5831 5832 5832 5832 5832 5832 5831 5831 5831 5831 5831 5830 5830 5829 5829 5829 5828 5828 5828
5818 5819 5820 5820 5821 5821 5822 5822 5822 5823 5823 5823 5824 5824 5826 5826 5826 5826 5826 5827 5827 5828 5828 5828 5828 5828 5828 5828 5828 5828 5828 5828 5828 5828 5827 5827 5826 5826 5826 5825 5825 5825 5824 5824
5815 5816 5816 5817 5818 5818 5819 5819 5819 5819 5820 5820 5822 5822 5822 5822 5823 5823 5823 5823 5824 5824 5824 5824 5824 5824 5824 5824 5824 5824 5824 5824 5824 5823 5823 5823 5822 5822 5822 5821 5821 5821 5820 5820
5812 5812 5813 5813 5814 5815 5815 5816 5816 5816 5816 5818 5819 5819 5819 5819 5819 5819 5819 5820 5820 5820 5820 5820 5820 5820 5820 5820 5820 5820 5820 5820 5819 5819 5819 5818 5818 5818 5817 5817 5817 5816 5816 5815
5808 5809 5809 5809 5810 5811 5811 5812 5813 5814 5814 5815 5816 5815 5816 5815 5815 5815 5816 5816 5816 5816 5815 5815 5815 5816 5816 5816 5816 5816 5816 5815 5815 5815 5814 5814 5813 5813 5813 5812 5812 5811 5811 5811
5804 5805 5805 5805 5806 5806 5807 5807 5809 5810 5810 5810 5811 5812 5811 5810 5810 5810 5811 5811 5812 5812 5811 5811 5811 5811 5811 5811 5811 5811 5811 5810 5810 5810 5809 5809 5808 5808 5807 5807 5806 5806 5805 5805
5799 5800 5801 5801 5801 5802 5803 5804 5805 5804 5805 5805 5807 5807 5807 5805 5805 5806 5806 5806 5806 5806 5806 5806 5806 5806 5806 5806 5806 5805 5805 5805 5804 5804 5804 5803 5802 5802 5801 5801 5800 5800 5800 5799
5795 5795 5796 5796 5796 5797 5798 5799 5799 5800 5800 5801 5801 5804 5803 5801 5800 5800 5800 5800 5800 5801 5801 5800 5800 5800 5800 5800 5800 5799 5799 5798 5798 5798 5797 5797 5796 5796 5795 5795 5794 5794 5794 5793
5789 5790 5790 5791 5791 5792 5792 5793 5794 5795 5795 5795 5795 5799 5797 5796 5794 5794 5794 5794 5794 5794 5794 5794 5794 5794 5794 5794 5794 5793 5793 5792 5792 5791 5791 5790 5790 5789 5789 5788 5788 5788 5787 5787
5784 5784 5785 5785 5788 5786 5786 5787 5788 5789 5789 5789 5789 5793 5791 5789 5788 5788 5788 5788 5788 5788 5788 5787 5787 5787 5787 5787 5787 5786 5786 5785 5785 5784 5784 5783 5783 5783 5782 5782 5781 5781 5781 5780
5778 5778 5779 5780 5780 5781 5780 5781 5782 5782 5782 5782 5783 5784 5783 5782 5781 5781 5781 5781 5781 5781 5781 5780 5780 5780 5780 5780 5780 5779 5778 5778 5777 5777 5777 5776 5776 5776 5775 5775 5774 5774 5773 5773
5772 5772 5772 5773 5773 5774 5774 5775 5775 5775 5775 5776 5776 5776 5776 5775 5774 5774 5773 5773 5773 5773 5773 5773 5772 5772 5772 5772 5772 5771 5771 5770 5770 5770 5769 5769 5769 5768 5768 5767 5767 5767 5766 5766
5765 5766 5766 5766 5767 5767 5767 5768 5768 5768 5768 5768 5768 5768 5768 5767 5766 5765 5765 5765 5765 5765 5765 5765 5765 5764 5764 5764 5764 5763 5763 5762 5762 5762 5761 5761 5761 5760 5760 5760 5759 5759 5758 5758
5759 5760 5759 5760 5760 5759 5760 5762 5761 5761 5761 5761 5760 5761 5760 5759 5758 5757 5757 5757 5756 5756 5756 5757 5756 5756 5756 5755 5755 5755 5754 5754 5754 5753 5753 5753 5752 5752 5752 5751 5751 5751 5750 5750
5753 5753 5753 5753 5754 5753 5757 5755 5755 5754 5753 5753 5752 5751 5751 5750 5749 5749 5749 5748 5747 5747 5747 5747 5747 5747 5747 5746 5746 5745 5745 5745 5744 5744 5744 5744 5743 5743 5743 5743 5742 5742 5742 5741
5747 5747 5746 5747 5746 5746 5748 5748 5747 5746 5746 5745 5744 5743 5742 5741 5741 5741 5740 5739 5739 5738 5738 5738 5737 5737 5737 5737 5736 5736 5736 5735 5735 5735 5735 5735 5734 5734 5734 5734 5733 5733 5733 5732
5740 5740 5741 5740 5739 5739 5741 5741 5739 5739 5738 5737 5736 5735 5733 5733 5732 5733 5731 5730 5730 5729 5729 5728 5728 5728 5727 5727 5727 5727 5727 5726 5726 5726 5726 5726 5725 5724 5725 5724 5724 5724 5724 5723
5734 5734 5734 5733 5732 5732 5733 5732 5733 5732 5731 5729 5727 5726 5726 5724 5724 5724 5722 5721 5720 5720 5719 5719 5718 5718 5718 5718 5718 5718 5717 5717 5717 5717 5717 5716 5716 5715 5715 5715 5715 5714 5714 5714
5727 5727 5727 5726 5726 5727 5725 5724 5725 5723 5721 5721 5719 5718 5717 5716 5715 5714 5713 5712 5711 5711 5710 5709 5709 5709 5709 5708 5708 5708 5708 5708 5707 5707 5707 5707 5707 5706 5706 5705 5705 5704 5704 5704
5720 5721 5720 5720 5721 5719 5717 5716 5716 5714 5713 5712 5711 5709 5708 5707 5706 5706 5705 5704 5703 5702 5701 5700 5700 5700 5699 5699 5698 5698 5698 5698 5698 5698 5698 5697 5697 5697 5696 5696 5695 5695 5694 5694
5713 5713 5712 5711 5711 5710 5709 5708 5707 5706 5704 5703 5701 5700 5699 5698 5697 5696 5695 5694 5694 5693 5692 5692 5691 5691 5690 5690 5689 5689 5689 5689 5689 5689 5689 5688 5688 5687 5687 5686 5686 5685 5684 5684
5706 5705 5703 5703 5703 5702 5701 5700 5698 5697 5695 5693 5692 5691 5689 5688 5687 5687 5686 5685 5685 5684 5683 5683 5682 5682 5681 5680 5680 5680 5680 5680 5680 5680 5679 5679 5678 5678 5677 5676 5676 5675 5675 5674
5697 5697 5695 5694 5694 5692 5691 5690 5688 5687 5685 5684 5682 5681 5680 5679 5678 5677 5677 5676 5675 5675 5674 5674 5673 5673 5672 5671 5671 5671 5671 5671 5671 5670 5670 5670 5669 5668 5668 5667 5666 5665 5665 5664